Regional Weather Roundup
Issued by NWS

Home | Current Version | Previous Version | Text Only | Print | Product List | Glossary Off
Versions: 1 2 3 4 5 6 7 8 9 10 11 12 13 14 15 16 17 18 19 20 21 22 23 24 25 26 27 28 29 30 31 32 33 34 35 36 37 38 39 40 41 42 43 44 45 46 47 48 49 50

000
ASUS43 KOAX 040302
RWRNE

WEATHER ROUNDUP FOR NEBRASKA
NATIONAL WEATHER SERVICE OMAHA NE
1000 PM CDT MON AUG 03 2015

NOTES: SATELLITE DATA IS BEING USED TO AUGMENT CLOUD COVER ABOVE
       12000 FEET.
       "FAIR" INDICATES FEW OR NO CLOUDS BELOW 12,000 FEET WITH NO
       SIGNIFICANT WEATHER AND/OR OBSTRUCTIONS TO VISIBILITY.

  * THESE STATIONS DO NOT REPORT WEATHER SUCH AS RAIN...SNOW OR FOG.

NEZ001>004-019>022-054>056-040400-
NEBRASKA PANHANDLE

CITY           SKY/WX    TMP DP  RH WIND       PRES   REMARKS
SCOTTSBLUFF    CLOUDY    75  60  59 E6        29.96S
ALLIANCE       CLOUDY    75  62  64 S8        29.96S
CHADRON        CLOUDY    79  61  53 S5        29.91R
KIMBALL        CLOUDY    74  47  37 S21G28    30.04R
SIDNEY         CLOUDY    76  50  40 SW14      30.02R
$$

NEZ057>060-069>072-079>082-040400-
SOUTHWEST NEBRASKA

CITY           SKY/WX    TMP DP  RH WIND       PRES   REMARKS
NORTH PLATTE   CLOUDY    74  70  87 E9        29.96R
IMPERIAL       CLOUDY    79  59  50 SW9       29.97R
LEXINGTON      MOCLDY    74  70  85 E8        29.97R
MCCOOK         CLOUDY    79  66  64 E6        29.93R
$$

NEZ005>010-023>029-035>040-094-040400-
NORTH CENTRAL NEBRASKA

CITY           SKY/WX    TMP DP  RH WIND       PRES   REMARKS
AINSWORTH      MOCLDY    70  62  74 E7        29.99R
BROKEN BOW     PTCLDY    73  62  68 E7        29.98R
ORD            MOCLDY    70  63  78 E3        29.97R
$$

NEZ041-046>049-061>064-073>077-083>087-040400-
SOUTH CENTRAL NEBRASKA

CITY           SKY/WX    TMP DP  RH WIND       PRES   REMARKS
GRAND ISLAND   PTCLDY    71  66  84 E7        29.97R
AURORA         PTCLDY    70  67  92 E6        29.97R
HASTINGS       PTCLDY    73  68  84 E8        29.96R
HEBRON         MOCLDY    75  65  73 E7        29.94R
HOLDREGE       MOCLDY    73  68  85 E10       29.96R
KEARNEY *      MOCLDY    72  64  78 E7        29.96R
YORK           MOCLDY    70  64  83 E7        29.97R
$$

NEZ011>018-030>034-042>045-040400-
NORTHEAST NEBRASKA

CITY           SKY/WX    TMP DP  RH WIND       PRES   REMARKS
NORFOLK        PTCLDY    68  63  84 SE5       29.98R
ALBION         PTCLDY    68  63  84 E7        29.99R
BLAIR          CLOUDY    71  64  77 NE6       29.97R
COLUMBUS *     PTCLDY    64  59  82 NE3       29.98R
FREMONT        PTCLDY    73  63  71 CALM      29.98R
TEKAMAH        CLOUDY    74  68  81 E3        29.96R
$$

NEZ050>053-065>068-078-088>093-040400-
SOUTHEAST NEBRASKA

CITY           SKY/WX    TMP DP  RH WIND       PRES   REMARKS
LINCOLN        MOCLDY    75  64  68 E7        29.96R
OMAHA EPPLEY   MOCLDY    76  65  68 SE5       29.96R
BEATRICE       MOCLDY    74  68  83 E7        29.95R
FALLS CITY     PTCLDY    74  70  87 E5        29.94R
NEBRASKA CITY  MOCLDY    71  62  74 NE3       29.96R
$$

NEZ044-045-051>053-067-040400-
OMAHA AREA

CITY           SKY/WX    TMP DP  RH WIND       PRES   REMARKS
OMAHA EPPLEY   MOCLDY    76  65  68 SE5       29.96R
BLAIR          CLOUDY    71  64  77 NE6       29.97R
FREMONT        PTCLDY    73  63  71 CALM      29.98R
OFFUTT AFB     CLEAR     67  65  94 E3        29.95R
WAHOO          FAIR      68  65  90 E3        29.97R
$$



USA.gov is the U.S. government's official web portal to all federal, state and local government web resources and services.